Location: London
(51.5074°N, 0.1278°W)
Time: 08:14:52
(UTC+00:00)

TIGRISAT - Pass Details

Date: 08 October 2020
Orbit: 606 x 688 km, 97.7° (Epoch: 30 October)

Event Time Altitude Azimuth Distance (km) Brightness Sun altitude
Rises 22:52:02 0° 1° (N) 3,007 ? -38.9°
Reaches altitude 10° 22:55:01 10° 340° (NNW) 2,105 ? -39.2°
Enters shadow 22:56:40 15° 320° (NW) 1,808 ? -39.3°
